Location: Artiguedieu
(43.5000°N, 0.5454°E)
Time: 20:56:09
(UTC+00:00)

Transit 2A - Pass Details

Date: 29 July 2021
Orbit: 594 x 964 km, 66.7° (Epoch: 28 September)

Event Time Altitude Azimuth Distance (km) Brightness Sun altitude
Rises 13:54:09 0° 338° (NNW) 3,173 9.1 56.1°
Reaches altitude 10° 13:57:06 10° 355° (N) 2,319 8.4 55.6°
Maximum altitude 14:00:58 20° 42° (NE) 1,821 7.8 55.1°
Drops below altitude 10° 14:05:04 10° 88° (E) 2,493 8.5 54.5°
Sets 14:08:22 0° 104° (ESE) 3,494 9.2 54.0°
